Location: Navarre
(52.9016°N, 113.4144°W)
Time: 07:20:06
(UTC+00:00)

Envisat - Pass Details

Date: 09 December 2021
Orbit: 764 x 766 km, 98.2° (Epoch: 17 January)

Event Time Altitude Azimuth Distance (km) Brightness Sun altitude
Rises 12:24:16 0° 17° (NNE) 3,247 6.4 -27.3°
Reaches altitude 10° 12:26:38 10° 21° (NNE) 2,316 5.7 -26.9°
Maximum altitude 12:31:40 57° 101° (E) 903 3.6 -26.2°
Drops below altitude 10° 12:36:39 10° 180° (S) 2,298 5.5 -25.4°
Sets 12:38:59 0° 184° (S) 3,219 6.3 -25.1°
